time_stamp(utc),avg(mph),gust(mph),direction(deg),12m_air_temp(f),sonic_u(cm/s),sonic_v(cm/s),sonic_w(cm/s),pressure,2m_air_temp(f),pyranometer(W/m^2)
"2018-09-03 00:02:07+00",9.2,11.2,,76.1,351,-926,256,1022.5,75.9,0
"2018-09-03 00:07:07+00",8.9,10.9,,76.1,479,-1131,395,1022.66,75.9,0
"2018-09-03 00:12:07+00",8.0,10.0,,76.1,423,-1049,364,1022.66,75.9,0
"2018-09-03 00:17:07+00",8.7,10.7,,76.2,389,-1025,339,1022.69,75.9,0
"2018-09-03 00:22:07+00",8.0,9.0,,76.2,495,-1209,457,1022.82,75.9,0
"2018-09-03 00:27:07+00",7.4,9.4,,76.1,572,-1367,545,1022.81,75.9,0
"2018-09-03 00:32:07+00",10.2,12.2,,76.1,645,-1604,593,1022.78,75.9,0
"2018-09-03 00:37:07+00",10.2,12.2,,76.1,738,-1734,681,1022.82,75.8,0
"2018-09-03 00:42:07+00",8.9,11.9,,76.1,893,-1957,828,1022.84,75.8,0
"2018-09-03 00:47:07+00",8.6,11.6,,76.1,995,-2140,931,1022.86,75.8,0
"2018-09-03 00:52:07+00",9.0,13.0,,76.1,848,-1909,798,1022.95,75.8,0
"2018-09-03 00:57:07+00",8.5,11.5,,76.2,1068,-2259,997,1023.05,75.9,0
"2018-09-03 01:02:07+00",6.2,8.2,,76.2,747,-1656,745,1023.16,75.9,0
"2018-09-03 01:07:07+00",7.0,9.0,,76.2,807,-1814,805,1023.31,75.9,0
"2018-09-03 01:12:07+00",6.1,8.1,,76.1,58,-471,90,1023.35,75.8,0
"2018-09-03 01:17:07+00",6.0,7.0,,76,-75,-243,-25,1023.49,75.8,0
"2018-09-03 01:22:07+00",6.4,7.4,,76,-29,-380,40,1023.51,75.7,0
"2018-09-03 01:27:07+00",5.5,7.5,,75.9,-72,-231,-33,1023.52,75.6,0
"2018-09-03 01:32:07+00",6.6,7.6,,75.9,-1,-362,20,1023.43,75.5,0
"2018-09-03 01:37:07+00",7.0,9.0,,75.8,111,-547,97,1023.32,75.5,0
"2018-09-03 01:42:07+00",6.6,7.6,,75.8,35,-379,10,1023.35,75.5,0
"2018-09-03 01:47:07+00",6.7,8.7,,75.8,-8,-314,-29,1023.28,75.5,0
"2018-09-03 01:52:07+00",8.5,11.5,,75.8,228,-841,225,1023.17,75.5,0
"2018-09-03 01:57:07+00",8.2,10.2,,75.8,-8,-384,-24,1023.23,75.5,0
"2018-09-03 02:02:07+00",8.8,11.8,,75.9,3,-504,37,1023.41,75.6,0
"2018-09-03 02:07:07+00",8.2,11.2,,75.9,-42,-328,-64,1023.32,75.6,0
"2018-09-03 02:12:07+00",6.7,9.7,,75.9,-41,-255,-57,1023.4,75.6,0
"2018-09-03 02:17:07+00",7.3,9.3,,76,-86,-286,-41,1023.54,75.6,0
"2018-09-03 02:22:07+00",5.5,7.5,,75.9,-80,-201,-34,1023.5,75.6,0
"2018-09-03 02:27:07+00",5.6,8.6,,75.9,-78,-205,-41,1023.49,75.6,0
"2018-09-03 02:32:07+00",6.2,8.2,,75.9,-59,-223,-49,1023.57,75.6,0
"2018-09-03 02:37:07+00",6.9,8.9,,75.9,-95,-256,-52,1023.65,75.6,0
"2018-09-03 02:42:07+00",6.6,8.6,,75.9,-56,-247,-65,1023.64,75.6,0
"2018-09-03 02:47:07+00",6.0,8.0,,76,-47,-225,-51,1023.65,75.6,0
"2018-09-03 02:52:07+00",6.2,8.2,,76,-54,-234,-43,1023.73,75.6,0
"2018-09-03 02:57:07+00",6.1,8.1,,76,-54,-231,-48,1023.86,75.6,0
"2018-09-03 03:02:07+00",5.8,7.8,,76,-58,-219,-56,1023.9,75.6,0
"2018-09-03 03:07:07+00",5.1,7.1,,75.9,-55,-187,-44,1023.87,75.6,0
"2018-09-03 03:12:07+00",4.5,5.5,,75.9,-59,-158,-37,1023.92,75.6,0
"2018-09-03 03:17:07+00",4.9,6.9,,75.9,-55,-173,-42,1024.03,75.6,0
"2018-09-03 03:22:07+00",5.5,7.5,,75.9,-39,-193,-47,1023.97,75.6,0
"2018-09-03 03:27:07+00",5.8,6.8,,75.9,-33,-210,-53,1023.9,75.6,0
"2018-09-03 03:32:07+00",5.5,6.5,,75.9,-41,-231,-39,1023.89,75.5,0
"2018-09-03 03:37:07+00",4.9,5.9,,75.9,-50,-190,-42,1023.97,75.5,0
"2018-09-03 03:42:07+00",4.2,5.2,,75.9,-59,-174,-24,1023.98,75.5,0
"2018-09-03 03:47:07+00",5.3,6.3,,75.9,-57,-207,-32,1024.02,75.5,0
"2018-09-03 03:52:07+00",4.8,5.8,,75.8,-80,-188,-30,1023.95,75.4,0
"2018-09-03 03:57:07+00",5.4,6.4,,75.8,-84,-215,-34,1023.99,75.4,0
"2018-09-03 04:02:07+00",4.5,5.5,,75.7,-82,-173,-28,1024,75.3,0
"2018-09-03 04:07:07+00",3.6,4.6,,75.7,-71,-146,-24,1024.06,75.2,0
"2018-09-03 04:12:07+00",4.2,5.2,,75.7,-75,-162,-27,1024.02,75.2,0
"2018-09-03 04:17:07+00",3.9,4.9,,75.7,-54,-157,-25,1024.06,75.2,0
"2018-09-03 04:22:07+00",3.5,4.5,,75.7,-67,-137,-19,1024.07,75.2,0
"2018-09-03 04:27:07+00",3.6,4.6,,75.7,-101,-135,-27,1024.06,75.1,0
"2018-09-03 04:32:07+00",4.7,4.7,,75.7,-91,-185,-31,1024.12,75.1,0
"2018-09-03 04:37:07+00",4.7,4.7,,75.6,-75,-187,-31,1024.07,75,0
"2018-09-03 04:42:07+00",4.2,5.2,,75.6,-40,-173,-20,1023.98,75.1,0
"2018-09-03 04:47:07+00",4.7,4.7,,75.7,-39,-175,-34,1023.98,75.1,0
"2018-09-03 04:52:07+00",4.6,5.6,,75.7,-37,-156,-42,1023.94,75.2,0
"2018-09-03 04:57:07+00",4.9,5.9,,75.7,-33,-155,-48,1023.97,75.2,0
"2018-09-03 05:02:07+00",4.1,5.1,,75.7,-40,-154,-30,1024,75.2,0
"2018-09-03 05:07:07+00",3.7,4.7,,75.7,-41,-136,-29,1023.97,75.2,0
"2018-09-03 05:12:07+00",3.9,3.9,,75.7,-55,-145,-26,1024.04,75.2,0
"2018-09-03 05:17:07+00",4.3,5.3,,75.7,-60,-158,-32,1023.97,75.1,0
"2018-09-03 05:22:07+00",4.2,5.2,,75.6,-59,-151,-34,1024,75.1,0
"2018-09-03 05:27:07+00",4.3,4.3,,75.6,-64,-158,-31,1024.1,75.1,0
"2018-09-03 05:32:07+00",3.8,4.8,,75.6,-78,-140,-19,1024.07,75,0
"2018-09-03 05:37:07+00",3.9,4.9,,75.7,-48,-129,23,1024.01,75,0
"2018-09-03 05:42:07+00",4.1,5.1,,75.6,-35,-137,7,1024,74.9,0
"2018-09-03 05:47:07+00",4.2,5.2,,75.6,-55,-168,-9,1023.99,75,0
"2018-09-03 05:52:07+00",4.4,4.4,,75.6,-51,-155,1,1024,75,0
"2018-09-03 05:57:07+00",4.4,4.4,,75.6,-54,-191,-5,1023.96,74.9,0
"2018-09-03 06:02:07+00",4.5,5.5,,75.5,-26,-152,-4,1023.93,74.9,0
"2018-09-03 06:07:07+00",5.2,6.2,,75.5,-29,-182,-28,1023.82,75,0
"2018-09-03 06:12:07+00",5.6,6.6,,75.5,-12,-227,-41,1023.82,74.9,0
"2018-09-03 06:17:07+00",5.5,6.5,,75.5,-32,-230,-33,1023.83,74.9,0
"2018-09-03 06:22:07+00",4.9,5.9,,75.5,-40,-196,-36,1023.81,75,0
"2018-09-03 06:27:07+00",3.6,4.6,,75.5,-41,-135,-22,1023.78,75,0
"2018-09-03 06:32:07+00",3.7,4.7,,75.5,-62,-138,-18,1023.83,74.9,0
"2018-09-03 06:37:07+00",4.6,5.6,,75.5,-62,-175,-32,1023.78,74.9,0
"2018-09-03 06:42:07+00",4.3,4.3,,75.5,-82,-158,-24,1023.79,74.8,0
"2018-09-03 06:47:07+00",4.9,5.9,,75.5,-58,-193,-32,1023.78,74.8,0
"2018-09-03 06:52:07+00",5.5,6.5,,75.5,-53,-213,-39,1023.72,74.9,0
"2018-09-03 06:57:07+00",4.9,5.9,,75.6,-56,-188,-35,1023.78,75,0
"2018-09-03 07:02:07+00",5.6,6.6,,75.6,-18,-216,-42,1023.71,75,0
"2018-09-03 07:07:07+00",5.6,6.6,,75.6,-16,-214,-48,1023.85,75,0
"2018-09-03 07:12:07+00",5.5,6.5,,75.6,-34,-214,-42,1023.76,75,0
"2018-09-03 07:17:07+00",5.4,6.4,,75.7,-53,-209,-37,1023.79,75.1,0
"2018-09-03 07:22:07+00",4.9,5.9,,75.7,-50,-189,-28,1023.73,75.2,0
"2018-09-03 07:27:07+00",4.6,5.6,,75.7,-59,-188,-26,1023.81,75.2,0
"2018-09-03 07:32:07+00",4.9,5.9,,75.7,-72,-192,-30,1023.77,75.2,0
"2018-09-03 07:37:07+00",4.4,5.4,,75.6,-62,-181,-31,1023.7,75.1,0
"2018-09-03 07:42:07+00",4.5,5.5,,75.6,-56,-180,-27,1023.67,75.1,0
"2018-09-03 07:47:07+00",4.8,5.8,,75.6,-63,-192,-36,1023.71,75.2,0
"2018-09-03 07:52:07+00",4.8,5.8,,75.6,-64,-189,-25,1023.69,75.2,0
"2018-09-03 07:57:07+00",4.6,5.6,,75.6,-74,-180,-31,1023.78,75.1,0
"2018-09-03 08:02:07+00",4.4,5.4,,75.5,-68,-175,-25,1023.77,75.1,0
"2018-09-03 08:07:07+00",5.3,6.3,,75.5,-54,-216,-31,1023.78,75.1,0
"2018-09-03 08:12:07+00",4.9,5.9,,75.5,-65,-190,-36,1023.73,75.1,0
"2018-09-03 08:17:07+00",4.3,5.3,,75.5,-85,-159,-35,1023.66,75.1,0
"2018-09-03 08:22:07+00",4.4,5.4,,75.4,-69,-187,-17,1023.72,74.9,0
"2018-09-03 08:27:07+00",5.1,6.1,,75.4,-74,-195,-28,1023.72,74.9,0
"2018-09-03 08:32:07+00",4.7,5.7,,75.4,-74,-185,-26,1023.75,74.8,0
"2018-09-03 08:37:07+00",5.2,5.2,,75.4,-90,-209,-28,1023.71,74.8,0
"2018-09-03 08:42:07+00",5.6,6.6,,75.4,-110,-224,-28,1023.79,74.8,0
"2018-09-03 08:47:07+00",4.7,5.7,,75.4,-82,-186,-28,1023.75,74.8,0
"2018-09-03 08:52:07+00",5.1,6.1,,75.4,-89,-201,-31,1023.72,74.8,0
"2018-09-03 08:57:07+00",4.9,5.9,,75.4,-97,-189,-28,1023.74,74.8,0
"2018-09-03 09:02:07+00",4.8,4.8,,75.4,-98,-185,-27,1023.79,74.7,0
"2018-09-03 09:07:07+00",5.3,6.3,,75.4,-102,-193,-32,1023.8,74.7,0
"2018-09-03 09:12:07+00",4.9,5.9,,75.3,-84,-191,-34,1023.9,74.6,0
"2018-09-03 09:17:07+00",5.6,6.6,,75.3,-83,-207,-39,1023.83,74.6,0
"2018-09-03 09:22:07+00",5.3,6.3,,75.3,-110,-197,-33,1023.82,74.7,0
"2018-09-03 09:27:07+00",4.8,5.8,,75.4,-60,-199,-29,1023.88,74.7,0
"2018-09-03 09:32:07+00",4.3,5.3,,75.4,-53,-183,-29,1023.96,74.7,0
"2018-09-03 09:37:07+00",3.5,4.5,,75.4,-71,-147,-21,1024.01,74.7,0
"2018-09-03 09:42:07+00",3.0,3.0,,75.4,-68,-132,-22,1024.05,74.6,0
"2018-09-03 09:47:07+00",3.0,3.0,,75.5,-68,-137,-24,1024.17,74.6,0
"2018-09-03 09:52:07+00",3.1,3.1,,75.5,-54,-136,-22,1024.19,74.6,0
"2018-09-03 09:57:07+00",2.8,3.8,,75.5,-55,-129,-25,1024.17,74.7,0
"2018-09-03 10:02:07+00",2.9,2.9,,75.5,-64,-137,-27,1024.24,74.7,0
"2018-09-03 10:07:07+00",3.2,4.2,,75.5,-92,-122,-29,1024.3,74.6,0
"2018-09-03 10:12:07+00",2.9,2.9,,75.5,-87,-134,-28,1024.29,74.4,0
"2018-09-03 10:17:07+00",3.0,3.0,,75.5,-92,-130,-24,1024.32,74.4,0
"2018-09-03 10:22:07+00",3.9,3.9,,75.6,-108,-117,-22,1024.29,74.4,0
"2018-09-03 10:27:07+00",4.0,4.0,,75.6,-134,-119,-10,1024.31,74.4,0
"2018-09-03 10:32:07+00",4.2,5.2,,75.6,-157,-108,-15,1024.33,74.4,0
"2018-09-03 10:37:07+00",3.3,4.3,,75.6,-138,-69,-20,1024.39,74.4,0
"2018-09-03 10:42:07+00",3.2,4.2,,75.7,-147,-66,-19,1024.44,74.5,0
"2018-09-03 10:47:07+00",3.7,4.7,,75.7,-150,-73,5,1024.5,74.6,0
"2018-09-03 10:52:07+00",4.4,4.4,,75.8,-168,-94,3,1024.54,74.7,0
"2018-09-03 10:57:07+00",3.7,4.7,,75.9,-135,-81,4,1024.6,74.8,0
"2018-09-03 11:02:07+00",3.1,3.1,,75.9,-124,-63,5,1024.63,74.9,0
"2018-09-03 11:07:07+00",3.4,3.4,,75.9,-140,-50,1,1024.64,75.1,0.3
"2018-09-03 11:12:07+00",4.2,5.2,,75.9,-170,-37,6,1024.69,75.3,6.6
"2018-09-03 11:17:07+00",4.0,5.0,,76,-163,-40,4,1024.7,75.6,6.2
"2018-09-03 11:22:07+00",3.5,4.5,,76,-143,-51,5,1024.71,75.8,16.7
"2018-09-03 11:27:07+00",3.8,3.8,,76.1,-150,-76,7,1024.8,76,24.6
"2018-09-03 11:32:07+00",3.4,4.4,,76.2,-140,-60,12,1024.73,76.3,17.7
"2018-09-03 11:37:07+00",4.0,5.0,,76.1,-161,-50,13,1024.76,76.4,27.1
"2018-09-03 11:42:07+00",3.2,4.2,,76.2,-130,-52,13,1024.83,76.5,25.8
"2018-09-03 11:47:07+00",3.1,4.1,,76.2,-124,-42,11,1024.81,76.6,45.7
"2018-09-03 11:52:07+00",3.6,4.6,,76.3,-142,-62,11,1024.81,76.8,47.2
"2018-09-03 11:57:07+00",4.5,5.5,,76.2,-185,-65,10,1024.88,76.9,38.6
"2018-09-03 12:02:07+00",4.7,5.7,,76.3,-181,-98,36,1024.84,76.9,39.3
"2018-09-03 12:07:07+00",5.5,6.5,,76.3,-234,-90,-2,1024.84,77,40.9
"2018-09-03 12:12:07+00",5.2,6.2,,76.3,-219,-94,4,1024.82,77.1,47.7
"2018-09-03 12:17:07+00",4.8,4.8,,76.4,-177,-109,14,1024.87,77.4,59.7
"2018-09-03 12:22:07+00",6.5,7.5,,76.4,-219,-171,14,1024.8,77.6,56.4
"2018-09-03 12:27:07+00",6.0,7.0,,76.5,-244,-100,10,1024.78,77.7,53.4
"2018-09-03 12:32:07+00",6.0,7.0,,76.6,-209,-157,28,1024.8,77.9,67.6
"2018-09-03 12:37:07+00",6.1,7.1,,76.7,-252,-77,22,1024.74,78.3,82
"2018-09-03 12:42:07+00",7.0,8.0,,76.6,-287,-90,7,1024.89,78.6,83.8
"2018-09-03 12:47:07+00",5.3,6.3,,76.9,-189,-127,42,1024.81,79.2,119.9
"2018-09-03 12:52:07+00",5.0,6.0,,77,-206,-49,-14,1024.89,79.9,98.8
"2018-09-03 12:57:07+00",4.4,5.4,,77.1,-171,-92,9,1024.81,80.6,90
"2018-09-03 13:02:07+00",3.6,4.6,,77.2,-128,-60,17,1024.86,81,97.6
"2018-09-03 13:07:07+00",1.4,2.4,,77.3,-63,-8,35,1024.94,81.3,94.4
"2018-09-03 13:12:07+00",2.1,2.1,,77.5,-53,68,2,1024.99,81.5,103.2
"2018-09-03 13:17:07+00",0.0,0.0,,77.6,9,34,-13,1025.06,81.5,94.5
"2018-09-03 13:22:07+00",0.0,0.0,,77.9,-10,-11,-4,1025.1,81.6,79
"2018-09-03 13:27:07+00",0.0,0.0,,77.9,-75,-9,4,1025.03,81.6,53.7
"2018-09-03 13:32:07+00",2.5,2.5,,77.9,-102,20,3,1025.15,81.8,74.2
"2018-09-03 13:37:07+00",0.0,0.0,,78,-24,-1,0,1025.2,82,167.9
"2018-09-03 13:42:07+00",3.1,4.1,,78.2,-110,69,-11,1025.2,82.3,234.7
"2018-09-03 13:47:07+00",3.1,4.1,,78.3,-109,71,21,1025.24,82.2,125
"2018-09-03 13:52:07+00",2.8,3.8,,78.2,-89,78,28,1025.26,82.2,115.5
"2018-09-03 13:57:07+00",2.3,3.3,,78.2,-82,37,35,1025.33,82.3,139.8
"2018-09-03 14:02:07+00",2.6,3.6,,78.3,-98,32,43,1025.35,82.4,166.9
"2018-09-03 14:07:07+00",0.0,0.0,,78.4,-3,27,-14,1025.39,82.5,292.1
"2018-09-03 14:12:07+00",0.0,0.0,,79,-11,9,-6,1025.37,83,338.2
"2018-09-03 14:17:07+00",1.2,2.2,,80,-9,-54,-16,1025.3,84.2,332.5
"2018-09-03 14:22:07+00",1.2,2.2,,80.6,47,-49,-1,1025.29,84.5,145.1
"2018-09-03 14:27:07+00",3.6,4.6,,80.4,-150,-30,4,1025.28,84,153.3
"2018-09-03 14:32:07+00",3.6,4.6,,80.3,39,-146,5,1025.29,84.1,206.1
"2018-09-03 14:37:07+00",4.6,6.6,,80.4,16,-192,-6,1025.25,83.6,414.3
"2018-09-03 14:42:07+00",5.5,6.5,,80.5,85,-223,-7,1025.31,83.2,401.7
"2018-09-03 14:47:07+00",7.3,8.3,,80.4,106,-293,4,1025.26,83.3,414.3
"2018-09-03 14:52:07+00",5.3,6.3,,80.3,96,-204,-26,1025.28,83.3,375
"2018-09-03 14:57:07+00",3.2,4.2,,80.5,-63,-119,32,1025.18,83.5,373.1
"2018-09-03 15:02:07+00",6.7,7.7,,80.6,101,-268,-38,1025.07,83.7,387.8
"2018-09-03 15:07:07+00",6.4,7.4,,80.4,128,-222,8,1025.14,83.6,395.6
"2018-09-03 15:12:07+00",7.0,8.0,,80.1,106,-276,-43,1025.12,83.1,409.4
"2018-09-03 15:17:07+00",7.6,8.6,,80.3,86,-295,10,1025.03,83,417.9
"2018-09-03 15:22:07+00",9.8,11.8,,79.5,104,-408,-34,1025.04,82.5,420.4
"2018-09-03 15:27:07+00",9.1,10.1,,79.4,92,-379,-14,1025,82.1,415.2
"2018-09-03 15:32:07+00",8.2,10.2,,79.3,91,-331,-13,1025.04,82,416.1
"2018-09-03 15:37:07+00",9.0,11.0,,79.6,148,-351,10,1024.99,82.2,422.7
"2018-09-03 15:42:07+00",9.2,11.2,,79.6,131,-353,19,1024.92,82.4,427.5
"2018-09-03 15:47:07+00",8.8,9.8,,79,153,-329,-1,1024.88,81.9,399.3
"2018-09-03 15:52:07+00",8.7,10.7,,79.2,63,-370,-4,1024.88,82,433.5
"2018-09-03 15:57:07+00",9.3,10.3,,78.8,20,-390,-21,1024.88,81.4,437.8
"2018-09-03 16:02:07+00",10.1,12.1,,79,81,-416,-18,1024.86,81.3,443.7
"2018-09-03 16:07:07+00",9.6,11.6,,79,106,-391,-22,1024.8,81.6,446.5
"2018-09-03 16:12:07+00",10.2,11.2,,78.8,147,-412,6,1024.7,81.6,452.1
"2018-09-03 16:17:07+00",9.0,11.0,,78.9,62,-396,7,1024.62,81.4,453.7
"2018-09-03 16:22:07+00",9.9,11.9,,79,72,-417,2,1024.68,81.5,455.6
"2018-09-03 16:27:07+00",9.7,12.7,,79,19,-406,15,1024.56,81.5,450.2
"2018-09-03 16:32:07+00",10.1,12.1,,79.1,53,-421,-2,1024.6,81.6,406.8
"2018-09-03 16:37:07+00",11.9,13.9,,78.8,110,-490,-23,1024.54,81.4,459.4
"2018-09-03 16:42:07+00",11.5,13.5,,78.7,100,-486,-37,1024.52,81.4,445.4
"2018-09-03 16:47:07+00",12.4,14.4,,78.8,145,-506,-35,1024.53,81.4,465.2
"2018-09-03 16:52:07+00",12.7,14.7,,79.1,118,-536,-33,1024.47,81.8,463.6
"2018-09-03 16:57:07+00",10.5,13.5,,79.3,12,-434,-3,1024.49,81.9,463.6
"2018-09-03 17:02:07+00",10.7,12.7,,79.4,97,-448,-7,1024.44,82,464.1
"2018-09-03 17:07:07+00",10.4,12.4,,79.5,-14,-440,-9,1024.37,81.9,461.8
"2018-09-03 17:12:07+00",11.0,14.0,,79.8,74,-468,-27,1024.27,82.3,462.6
"2018-09-03 17:17:07+00",11.7,14.7,,79.3,124,-483,-4,1024.2,81.8,462.8
"2018-09-03 17:22:07+00",12.5,15.5,,79.3,101,-530,-21,1024.17,81.8,462.5
"2018-09-03 17:27:07+00",13.8,15.8,,79.1,117,-579,-28,1024.12,81.8,459.5
"2018-09-03 17:32:07+00",13.0,15.0,,79,134,-543,-17,1024.06,81.6,459.8
"2018-09-03 17:37:07+00",11.2,14.2,,79.5,87,-477,-34,1024.1,82,459.4
"2018-09-03 17:42:07+00",12.1,15.1,,79.2,92,-513,-11,1024.02,81.7,453.6
"2018-09-03 17:47:07+00",11.8,14.8,,79.4,37,-488,-17,1024.03,81.7,451.9
"2018-09-03 17:52:07+00",13.1,16.1,,79.6,127,-525,10,1023.95,81.8,450.2
"2018-09-03 17:57:07+00",11.7,15.7,,79.9,-8,-497,-12,1023.98,82.1,447.5
"2018-09-03 18:02:07+00",13.8,16.8,,79.7,15,-578,-25,1023.96,82,445.2
"2018-09-03 18:07:07+00",14.7,16.7,,79.4,41,-638,-26,1023.85,81.7,437.6
"2018-09-03 18:12:07+00",14.6,16.6,,79.2,56,-631,-34,1023.84,81.6,434.6
"2018-09-03 18:17:07+00",15.6,17.6,,79.2,94,-668,-33,1023.79,81.5,430
"2018-09-03 18:22:07+00",15.5,17.5,,79.6,140,-653,-37,1023.73,81.7,428.3
"2018-09-03 18:27:07+00",12.1,17.1,,79.6,47,-499,-2,1023.7,81.9,423.7
"2018-09-03 18:32:07+00",13.7,16.7,,79.5,17,-597,-21,1023.59,81.7,417
"2018-09-03 18:37:07+00",13.2,16.2,,79.7,94,-554,-18,1023.61,81.8,412.7
"2018-09-03 18:42:07+00",12.0,14.0,,80.2,47,-494,25,1023.56,82.3,403.8
"2018-09-03 18:47:07+00",12.7,16.7,,79.9,21,-532,-32,1023.44,82.1,397.9
"2018-09-03 18:52:07+00",14.3,17.3,,80.1,53,-596,-16,1023.47,82,391.7
"2018-09-03 18:57:07+00",9.6,12.6,,80.5,-28,-405,8,1023.44,82.4,387.1
"2018-09-03 19:02:07+00",12.1,15.1,,80.7,-14,-505,-27,1023.34,82.5,377.9
"2018-09-03 19:07:07+00",11.9,14.9,,80.9,-41,-494,-14,1023.33,82.9,371.1
"2018-09-03 19:12:07+00",12.8,15.8,,80.7,-55,-531,-24,1023.38,82.5,364.9
"2018-09-03 19:17:07+00",11.1,13.1,,80.9,-22,-465,-31,1023.32,82.6,356
"2018-09-03 19:22:07+00",11.6,15.6,,81.2,-55,-476,-35,1023.35,82.9,349.6
"2018-09-03 19:27:07+00",8.5,12.5,,81.7,-9,-351,34,1023.35,83.5,339.5
"2018-09-03 19:32:07+00",11.0,14.0,,81.5,17,-462,-7,1023.27,83.2,332.1
"2018-09-03 19:37:07+00",9.4,11.4,,81.6,-35,-395,-14,1023.21,83.3,324.5
"2018-09-03 19:42:07+00",10.4,14.4,,81.3,34,-426,-4,1023.22,83.2,318.2
"2018-09-03 19:47:07+00",11.6,15.6,,81.2,44,-490,-3,1023.16,82.9,311.1
"2018-09-03 19:52:07+00",10.3,13.3,,81.3,35,-435,-18,1023.12,82.9,302.9
"2018-09-03 19:57:07+00",9.8,12.8,,81.4,22,-424,-12,1023.11,83.2,296.2
"2018-09-03 20:02:07+00",9.8,12.8,,81.6,29,-402,2,1023.09,83.6,288.8
"2018-09-03 20:07:07+00",10.1,13.1,,81.7,-22,-440,-31,1023.03,83.5,278.9
"2018-09-03 20:12:07+00",10.7,14.7,,81.9,-31,-440,-10,1022.99,83.6,270.8
"2018-09-03 20:17:07+00",12.8,14.8,,81.4,-55,-523,-38,1022.76,83,264.2
"2018-09-03 20:22:07+00",10.3,14.3,,81.7,7,-437,10,1022.69,83.2,256.7
"2018-09-03 20:27:07+00",12.3,15.3,,81.7,-29,-524,-34,1022.62,83.2,250.7
"2018-09-03 20:32:07+00",13.2,17.2,,81.2,9,-563,-31,1022.53,82.6,243.7
"2018-09-03 20:37:07+00",11.0,15.0,,81.2,-10,-457,-22,1022.59,82.6,237.6
"2018-09-03 20:42:07+00",11.0,15.0,,81.2,16,-465,3,1022.62,82.5,228.6
"2018-09-03 20:47:07+00",9.7,13.7,,81.4,-14,-399,11,1022.62,82.6,221.3
"2018-09-03 20:52:07+00",9.3,15.3,,81.5,-57,-398,-2,1022.65,82.9,214.1
"2018-09-03 20:57:07+00",10.5,13.5,,81.2,-48,-449,-4,1022.64,82.6,205
"2018-09-03 21:02:07+00",12.4,14.4,,81.2,-27,-531,-31,1022.73,82.4,194.2
"2018-09-03 21:07:07+00",10.7,13.7,,81.1,-43,-445,-21,1022.67,82.4,187.8
"2018-09-03 21:12:07+00",10.0,13.0,,81.5,-117,-411,-3,1022.67,82.8,179.1
"2018-09-03 21:17:07+00",14.2,17.2,,81.5,-166,-592,-12,1022.5,83,171.3
"2018-09-03 21:22:07+00",14.7,17.7,,81.3,-178,-608,-19,1022.44,82.8,165.8
"2018-09-03 21:27:07+00",11.6,16.6,,81.4,-161,-465,13,1022.43,82.8,155.4
"2018-09-03 21:32:07+00",13.4,15.4,,81.1,-259,-530,12,1022.41,82.8,146.6
"2018-09-03 21:37:07+00",13.9,16.9,,80.8,-228,-554,-9,1022.49,82.4,140.2
"2018-09-03 21:42:07+00",14.6,16.6,,80.7,-270,-579,-2,1022.49,82.2,129.1
"2018-09-03 21:47:07+00",15.1,18.1,,80.8,-274,-593,0,1022.61,82.1,118.5
"2018-09-03 21:52:07+00",12.5,16.5,,80.9,-166,-507,-1,1022.75,82.1,107.8
"2018-09-03 21:57:07+00",12.4,16.4,,80.9,-153,-505,-12,1022.76,82.1,100.5
"2018-09-03 22:02:07+00",11.2,15.2,,80.9,-185,-445,19,1022.84,82.1,90.6
"2018-09-03 22:07:07+00",15.9,17.9,,80.7,-298,-616,-3,1022.81,81.9,83.5
"2018-09-03 22:12:07+00",14.0,17.0,,80.8,-175,-572,-13,1022.6,81.6,72.7
"2018-09-03 22:17:07+00",14.8,17.8,,80.6,-388,-547,11,1022.74,81.7,63.5
"2018-09-03 22:22:07+00",14.1,17.1,,80.6,-310,-536,0,1022.72,81.7,39.7
"2018-09-03 22:27:07+00",15.4,17.4,,80.5,-274,-602,-20,1022.73,81.3,23.4
"2018-09-03 22:32:07+00",13.6,16.6,,80.3,-277,-532,16,1022.77,80.9,5.1
"2018-09-03 22:37:07+00",15.1,17.1,,80.2,-290,-583,-18,1022.69,80.6,0
"2018-09-03 22:42:07+00",14.3,16.3,,80,-319,-550,-6,1022.77,80.3,0
"2018-09-03 22:47:07+00",15.3,17.3,,79.9,-285,-598,-10,1022.71,80,0
"2018-09-03 22:52:07+00",12.4,15.4,,79.8,-242,-480,2,1022.7,79.9,0
"2018-09-03 22:57:07+00",14.2,16.2,,79.7,-275,-553,-4,1022.69,79.7,0
"2018-09-03 23:02:07+00",12.9,15.9,,79.7,-208,-519,-11,1022.6,79.7,0
"2018-09-03 23:07:07+00",16.1,18.1,,79.7,-297,-632,-11,1022.66,79.7,0
"2018-09-03 23:12:07+00",14.5,17.5,,79.6,-280,-557,-7,1022.66,79.6,0
"2018-09-03 23:17:07+00",12.5,15.5,,79.5,-261,-481,-6,1022.65,79.5,0
"2018-09-03 23:22:07+00",11.4,13.4,,79.4,-264,-437,4,1022.68,79.4,0
"2018-09-03 23:27:07+00",12.2,14.2,,79.4,-297,-454,-1,1022.69,79.3,0
"2018-09-03 23:32:07+00",11.9,14.9,,79.3,-293,-450,0,1022.69,79.3,0
"2018-09-03 23:37:07+00",13.4,16.4,,79.3,-337,-497,0,1022.62,79.1,0
"2018-09-03 23:42:07+00",10.9,13.9,,79.2,-293,-401,3,1022.72,79.1,0
"2018-09-03 23:47:07+00",13.7,15.7,,79.2,-382,-499,12,1022.78,79,0
"2018-09-03 23:52:07+00",11.9,14.9,,79.1,-332,-442,10,1022.79,79,0
"2018-09-03 23:57:07+00",12.4,14.4,,79.1,-364,-426,3,1022.88,79,0
